<?xml version="1.0"?>
<gpx xmlns="http://www.topografix.com/GPX/1/1" xmlns:xsi="http://www.w3.org/2001/XMLSchema-instance" version="1.1" creator="GPX RubyGem 1.0.0 -- http://dougfales.github.io/gpx/" xsi:schemaLocation="http://www.topografix.com/GPX/1/1 http://www.topografix.com/GPX/1/1/gpx.xsd">
  <metadata>
    <name/>
    <time>2026-05-09T08:13:38+00:00</time>
    <bound minlat="90.0" minlon="180.0" maxlat="-90.0" maxlon="-180.0"/>
  </metadata>
  <trk>
    <name/>
    <trkseg>
      <trkpt lat="48.085933" lon="6.475813">
        <time>1970-01-01T00:00:00+00:00</time>
        <ele>416.0</ele>
      </trkpt>
      <trkpt lat="48.086094" lon="6.475648">
        <time>1970-01-01T00:00:00+00:00</time>
        <ele>417.0</ele>
      </trkpt>
      <trkpt lat="48.086301" lon="6.475519">
        <time>1970-01-01T00:00:00+00:00</time>
        <ele>417.0</ele>
      </trkpt>
      <trkpt lat="48.086417" lon="6.475498">
        <time>1970-01-01T00:00:00+00:00</time>
        <ele>417.0</ele>
      </trkpt>
      <trkpt lat="48.086562" lon="6.475543">
        <time>1970-01-01T00:00:00+00:00</time>
        <ele>416.0</ele>
      </trkpt>
      <trkpt lat="48.086657" lon="6.475615">
        <time>1970-01-01T00:00:00+00:00</time>
        <ele>417.0</ele>
      </trkpt>
      <trkpt lat="48.087174" lon="6.476403">
        <time>1970-01-01T00:00:00+00:00</time>
        <ele>413.0</ele>
      </trkpt>
      <trkpt lat="48.086695" lon="6.476996">
        <time>1970-01-01T00:00:00+00:00</time>
        <ele>413.0</ele>
      </trkpt>
      <trkpt lat="48.086035" lon="6.477898">
        <time>1970-01-01T00:00:00+00:00</time>
        <ele>414.0</ele>
      </trkpt>
      <trkpt lat="48.085266" lon="6.478915">
        <time>1970-01-01T00:00:00+00:00</time>
        <ele>415.0</ele>
      </trkpt>
      <trkpt lat="48.084954" lon="6.479194">
        <time>1970-01-01T00:00:00+00:00</time>
        <ele>413.0</ele>
      </trkpt>
      <trkpt lat="48.084685" lon="6.479288">
        <time>1970-01-01T00:00:00+00:00</time>
        <ele>411.0</ele>
      </trkpt>
      <trkpt lat="48.084506" lon="6.479293">
        <time>1970-01-01T00:00:00+00:00</time>
        <ele>409.0</ele>
      </trkpt>
      <trkpt lat="48.083602" lon="6.479251">
        <time>1970-01-01T00:00:00+00:00</time>
        <ele>404.0</ele>
      </trkpt>
      <trkpt lat="48.083489" lon="6.479233">
        <time>1970-01-01T00:00:00+00:00</time>
        <ele>403.0</ele>
      </trkpt>
      <trkpt lat="48.083138" lon="6.4791">
        <time>1970-01-01T00:00:00+00:00</time>
        <ele>401.0</ele>
      </trkpt>
      <trkpt lat="48.082891" lon="6.479052">
        <time>1970-01-01T00:00:00+00:00</time>
        <ele>401.0</ele>
      </trkpt>
      <trkpt lat="48.082743" lon="6.479062">
        <time>1970-01-01T00:00:00+00:00</time>
        <ele>401.0</ele>
      </trkpt>
      <trkpt lat="48.082412" lon="6.479132">
        <time>1970-01-01T00:00:00+00:00</time>
        <ele>402.0</ele>
      </trkpt>
      <trkpt lat="48.08198" lon="6.479273">
        <time>1970-01-01T00:00:00+00:00</time>
        <ele>404.0</ele>
      </trkpt>
      <trkpt lat="48.081882" lon="6.479344">
        <time>1970-01-01T00:00:00+00:00</time>
        <ele>404.0</ele>
      </trkpt>
      <trkpt lat="48.080992" lon="6.480342">
        <time>1970-01-01T00:00:00+00:00</time>
        <ele>405.0</ele>
      </trkpt>
      <trkpt lat="48.080133" lon="6.480961">
        <time>1970-01-01T00:00:00+00:00</time>
        <ele>401.0</ele>
      </trkpt>
      <trkpt lat="48.080003" lon="6.480963">
        <time>1970-01-01T00:00:00+00:00</time>
        <ele>401.0</ele>
      </trkpt>
      <trkpt lat="48.079618" lon="6.480869">
        <time>1970-01-01T00:00:00+00:00</time>
        <ele>400.0</ele>
      </trkpt>
      <trkpt lat="48.078406" lon="6.480494">
        <time>1970-01-01T00:00:00+00:00</time>
        <ele>399.0</ele>
      </trkpt>
      <trkpt lat="48.076849" lon="6.480025">
        <time>1970-01-01T00:00:00+00:00</time>
        <ele>405.0</ele>
      </trkpt>
      <trkpt lat="48.076321" lon="6.479869">
        <time>1970-01-01T00:00:00+00:00</time>
        <ele>407.0</ele>
      </trkpt>
      <trkpt lat="48.075841" lon="6.479823">
        <time>1970-01-01T00:00:00+00:00</time>
        <ele>409.0</ele>
      </trkpt>
      <trkpt lat="48.072727" lon="6.480194">
        <time>1970-01-01T00:00:00+00:00</time>
        <ele>413.0</ele>
      </trkpt>
      <trkpt lat="48.072711" lon="6.480131">
        <time>1970-01-01T00:00:00+00:00</time>
        <ele>413.0</ele>
      </trkpt>
      <trkpt lat="48.072667" lon="6.480088">
        <time>1970-01-01T00:00:00+00:00</time>
        <ele>413.0</ele>
      </trkpt>
      <trkpt lat="48.072295" lon="6.480049">
        <time>1970-01-01T00:00:00+00:00</time>
        <ele>417.0</ele>
      </trkpt>
      <trkpt lat="48.072106" lon="6.479851">
        <time>1970-01-01T00:00:00+00:00</time>
        <ele>421.0</ele>
      </trkpt>
      <trkpt lat="48.071991" lon="6.479656">
        <time>1970-01-01T00:00:00+00:00</time>
        <ele>424.0</ele>
      </trkpt>
      <trkpt lat="48.071605" lon="6.47887">
        <time>1970-01-01T00:00:00+00:00</time>
        <ele>435.0</ele>
      </trkpt>
      <trkpt lat="48.071252" lon="6.478093">
        <time>1970-01-01T00:00:00+00:00</time>
        <ele>437.0</ele>
      </trkpt>
      <trkpt lat="48.07097" lon="6.4778">
        <time>1970-01-01T00:00:00+00:00</time>
        <ele>438.0</ele>
      </trkpt>
      <trkpt lat="48.070686" lon="6.47759">
        <time>1970-01-01T00:00:00+00:00</time>
        <ele>439.0</ele>
      </trkpt>
      <trkpt lat="48.069941" lon="6.477182">
        <time>1970-01-01T00:00:00+00:00</time>
        <ele>439.0</ele>
      </trkpt>
      <trkpt lat="48.069296" lon="6.476753">
        <time>1970-01-01T00:00:00+00:00</time>
        <ele>440.0</ele>
      </trkpt>
      <trkpt lat="48.068838" lon="6.476496">
        <time>1970-01-01T00:00:00+00:00</time>
        <ele>439.0</ele>
      </trkpt>
      <trkpt lat="48.068034" lon="6.476152">
        <time>1970-01-01T00:00:00+00:00</time>
        <ele>436.0</ele>
      </trkpt>
      <trkpt lat="48.067851" lon="6.475984">
        <time>1970-01-01T00:00:00+00:00</time>
        <ele>435.0</ele>
      </trkpt>
      <trkpt lat="48.067741" lon="6.475777">
        <time>1970-01-01T00:00:00+00:00</time>
        <ele>434.0</ele>
      </trkpt>
      <trkpt lat="48.067678" lon="6.475562">
        <time>1970-01-01T00:00:00+00:00</time>
        <ele>434.0</ele>
      </trkpt>
      <trkpt lat="48.067421" lon="6.475362">
        <time>1970-01-01T00:00:00+00:00</time>
        <ele>436.0</ele>
      </trkpt>
      <trkpt lat="48.066385" lon="6.474872">
        <time>1970-01-01T00:00:00+00:00</time>
        <ele>440.0</ele>
      </trkpt>
      <trkpt lat="48.066328" lon="6.474786">
        <time>1970-01-01T00:00:00+00:00</time>
        <ele>441.0</ele>
      </trkpt>
      <trkpt lat="48.06625" lon="6.474587">
        <time>1970-01-01T00:00:00+00:00</time>
        <ele>443.0</ele>
      </trkpt>
      <trkpt lat="48.065438" lon="6.474436">
        <time>1970-01-01T00:00:00+00:00</time>
        <ele>444.0</ele>
      </trkpt>
      <trkpt lat="48.064564" lon="6.473599">
        <time>1970-01-01T00:00:00+00:00</time>
        <ele>448.0</ele>
      </trkpt>
      <trkpt lat="48.063961" lon="6.472976">
        <time>1970-01-01T00:00:00+00:00</time>
        <ele>452.0</ele>
      </trkpt>
      <trkpt lat="48.063502" lon="6.472354">
        <time>1970-01-01T00:00:00+00:00</time>
        <ele>459.0</ele>
      </trkpt>
      <trkpt lat="48.0629" lon="6.472118">
        <time>1970-01-01T00:00:00+00:00</time>
        <ele>459.0</ele>
      </trkpt>
      <trkpt lat="48.062255" lon="6.471753">
        <time>1970-01-01T00:00:00+00:00</time>
        <ele>462.0</ele>
      </trkpt>
      <trkpt lat="48.061495" lon="6.470895">
        <time>1970-01-01T00:00:00+00:00</time>
        <ele>465.0</ele>
      </trkpt>
      <trkpt lat="48.060835" lon="6.470187">
        <time>1970-01-01T00:00:00+00:00</time>
        <ele>467.0</ele>
      </trkpt>
      <trkpt lat="48.059812" lon="6.468908">
        <time>1970-01-01T00:00:00+00:00</time>
        <ele>476.0</ele>
      </trkpt>
      <trkpt lat="48.059753" lon="6.468774">
        <time>1970-01-01T00:00:00+00:00</time>
        <ele>479.0</ele>
      </trkpt>
      <trkpt lat="48.059654" lon="6.467902">
        <time>1970-01-01T00:00:00+00:00</time>
        <ele>483.0</ele>
      </trkpt>
      <trkpt lat="48.059666" lon="6.467706">
        <time>1970-01-01T00:00:00+00:00</time>
        <ele>483.0</ele>
      </trkpt>
      <trkpt lat="48.059725" lon="6.467325">
        <time>1970-01-01T00:00:00+00:00</time>
        <ele>484.0</ele>
      </trkpt>
      <trkpt lat="48.059724" lon="6.46685">
        <time>1970-01-01T00:00:00+00:00</time>
        <ele>484.0</ele>
      </trkpt>
      <trkpt lat="48.059837" lon="6.466898">
        <time>1970-01-01T00:00:00+00:00</time>
        <ele>483.0</ele>
      </trkpt>
      <trkpt lat="48.059837" lon="6.466898">
        <time>1970-01-01T00:00:00+00:00</time>
        <ele>483.0</ele>
      </trkpt>
      <trkpt lat="48.060003" lon="6.466968">
        <time>1970-01-01T00:00:00+00:00</time>
        <ele>482.0</ele>
      </trkpt>
      <trkpt lat="48.060165" lon="6.466995">
        <time>1970-01-01T00:00:00+00:00</time>
        <ele>481.0</ele>
      </trkpt>
      <trkpt lat="48.060283" lon="6.466938">
        <time>1970-01-01T00:00:00+00:00</time>
        <ele>481.0</ele>
      </trkpt>
      <trkpt lat="48.060321" lon="6.466867">
        <time>1970-01-01T00:00:00+00:00</time>
        <ele>482.0</ele>
      </trkpt>
      <trkpt lat="48.060346" lon="6.466755">
        <time>1970-01-01T00:00:00+00:00</time>
        <ele>482.0</ele>
      </trkpt>
      <trkpt lat="48.060295" lon="6.465366">
        <time>1970-01-01T00:00:00+00:00</time>
        <ele>487.0</ele>
      </trkpt>
      <trkpt lat="48.060358" lon="6.464562">
        <time>1970-01-01T00:00:00+00:00</time>
        <ele>491.0</ele>
      </trkpt>
      <trkpt lat="48.060421" lon="6.464029">
        <time>1970-01-01T00:00:00+00:00</time>
        <ele>494.0</ele>
      </trkpt>
      <trkpt lat="48.060476" lon="6.463733">
        <time>1970-01-01T00:00:00+00:00</time>
        <ele>496.0</ele>
      </trkpt>
      <trkpt lat="48.060586" lon="6.463477">
        <time>1970-01-01T00:00:00+00:00</time>
        <ele>500.0</ele>
      </trkpt>
      <trkpt lat="48.060778" lon="6.463267">
        <time>1970-01-01T00:00:00+00:00</time>
        <ele>505.0</ele>
      </trkpt>
      <trkpt lat="48.061108" lon="6.463203">
        <time>1970-01-01T00:00:00+00:00</time>
        <ele>510.0</ele>
      </trkpt>
      <trkpt lat="48.061538" lon="6.463213">
        <time>1970-01-01T00:00:00+00:00</time>
        <ele>516.0</ele>
      </trkpt>
      <trkpt lat="48.061803" lon="6.46317">
        <time>1970-01-01T00:00:00+00:00</time>
        <ele>519.0</ele>
      </trkpt>
      <trkpt lat="48.062355" lon="6.463138">
        <time>1970-01-01T00:00:00+00:00</time>
        <ele>523.0</ele>
      </trkpt>
      <trkpt lat="48.063969" lon="6.46316">
        <time>1970-01-01T00:00:00+00:00</time>
        <ele>522.0</ele>
      </trkpt>
      <trkpt lat="48.065195" lon="6.463117">
        <time>1970-01-01T00:00:00+00:00</time>
        <ele>515.0</ele>
      </trkpt>
      <trkpt lat="48.065489" lon="6.462956">
        <time>1970-01-01T00:00:00+00:00</time>
        <ele>511.0</ele>
      </trkpt>
      <trkpt lat="48.065876" lon="6.462795">
        <time>1970-01-01T00:00:00+00:00</time>
        <ele>509.0</ele>
      </trkpt>
      <trkpt lat="48.066177" lon="6.462612">
        <time>1970-01-01T00:00:00+00:00</time>
        <ele>506.0</ele>
      </trkpt>
      <trkpt lat="48.066478" lon="6.462462">
        <time>1970-01-01T00:00:00+00:00</time>
        <ele>504.0</ele>
      </trkpt>
      <trkpt lat="48.06675" lon="6.462387">
        <time>1970-01-01T00:00:00+00:00</time>
        <ele>502.0</ele>
      </trkpt>
      <trkpt lat="48.066923" lon="6.462194">
        <time>1970-01-01T00:00:00+00:00</time>
        <ele>499.0</ele>
      </trkpt>
      <trkpt lat="48.067381" lon="6.462333">
        <time>1970-01-01T00:00:00+00:00</time>
        <ele>494.0</ele>
      </trkpt>
      <trkpt lat="48.067998" lon="6.462655">
        <time>1970-01-01T00:00:00+00:00</time>
        <ele>486.0</ele>
      </trkpt>
      <trkpt lat="48.068566" lon="6.462861">
        <time>1970-01-01T00:00:00+00:00</time>
        <ele>479.0</ele>
      </trkpt>
      <trkpt lat="48.068647" lon="6.462932">
        <time>1970-01-01T00:00:00+00:00</time>
        <ele>477.0</ele>
      </trkpt>
      <trkpt lat="48.06872" lon="6.462902">
        <time>1970-01-01T00:00:00+00:00</time>
        <ele>476.0</ele>
      </trkpt>
      <trkpt lat="48.068798" lon="6.462903">
        <time>1970-01-01T00:00:00+00:00</time>
        <ele>475.0</ele>
      </trkpt>
      <trkpt lat="48.068952" lon="6.462956">
        <time>1970-01-01T00:00:00+00:00</time>
        <ele>474.0</ele>
      </trkpt>
      <trkpt lat="48.06941" lon="6.463273">
        <time>1970-01-01T00:00:00+00:00</time>
        <ele>472.0</ele>
      </trkpt>
      <trkpt lat="48.069538" lon="6.463333">
        <time>1970-01-01T00:00:00+00:00</time>
        <ele>471.0</ele>
      </trkpt>
      <trkpt lat="48.069732" lon="6.46337">
        <time>1970-01-01T00:00:00+00:00</time>
        <ele>471.0</ele>
      </trkpt>
      <trkpt lat="48.069824" lon="6.463356">
        <time>1970-01-01T00:00:00+00:00</time>
        <ele>471.0</ele>
      </trkpt>
      <trkpt lat="48.070023" lon="6.463228">
        <time>1970-01-01T00:00:00+00:00</time>
        <ele>471.0</ele>
      </trkpt>
      <trkpt lat="48.070228" lon="6.462966">
        <time>1970-01-01T00:00:00+00:00</time>
        <ele>472.0</ele>
      </trkpt>
      <trkpt lat="48.070392" lon="6.462688">
        <time>1970-01-01T00:00:00+00:00</time>
        <ele>473.0</ele>
      </trkpt>
      <trkpt lat="48.070715" lon="6.462301">
        <time>1970-01-01T00:00:00+00:00</time>
        <ele>475.0</ele>
      </trkpt>
      <trkpt lat="48.070995" lon="6.462022">
        <time>1970-01-01T00:00:00+00:00</time>
        <ele>475.0</ele>
      </trkpt>
      <trkpt lat="48.071267" lon="6.461808">
        <time>1970-01-01T00:00:00+00:00</time>
        <ele>475.0</ele>
      </trkpt>
      <trkpt lat="48.071561" lon="6.461743">
        <time>1970-01-01T00:00:00+00:00</time>
        <ele>475.0</ele>
      </trkpt>
      <trkpt lat="48.071812" lon="6.461754">
        <time>1970-01-01T00:00:00+00:00</time>
        <ele>472.0</ele>
      </trkpt>
      <trkpt lat="48.072136" lon="6.461935">
        <time>1970-01-01T00:00:00+00:00</time>
        <ele>470.0</ele>
      </trkpt>
      <trkpt lat="48.073153" lon="6.462709">
        <time>1970-01-01T00:00:00+00:00</time>
        <ele>461.0</ele>
      </trkpt>
      <trkpt lat="48.073511" lon="6.462934">
        <time>1970-01-01T00:00:00+00:00</time>
        <ele>459.0</ele>
      </trkpt>
      <trkpt lat="48.073792" lon="6.46319">
        <time>1970-01-01T00:00:00+00:00</time>
        <ele>458.0</ele>
      </trkpt>
      <trkpt lat="48.074208" lon="6.463641">
        <time>1970-01-01T00:00:00+00:00</time>
        <ele>454.0</ele>
      </trkpt>
      <trkpt lat="48.074652" lon="6.464392">
        <time>1970-01-01T00:00:00+00:00</time>
        <ele>447.0</ele>
      </trkpt>
      <trkpt lat="48.074788" lon="6.464542">
        <time>1970-01-01T00:00:00+00:00</time>
        <ele>447.0</ele>
      </trkpt>
      <trkpt lat="48.074973" lon="6.464554">
        <time>1970-01-01T00:00:00+00:00</time>
        <ele>445.0</ele>
      </trkpt>
      <trkpt lat="48.075398" lon="6.464478">
        <time>1970-01-01T00:00:00+00:00</time>
        <ele>441.0</ele>
      </trkpt>
      <trkpt lat="48.075471" lon="6.464438">
        <time>1970-01-01T00:00:00+00:00</time>
        <ele>440.0</ele>
      </trkpt>
      <trkpt lat="48.075526" lon="6.464364">
        <time>1970-01-01T00:00:00+00:00</time>
        <ele>439.0</ele>
      </trkpt>
      <trkpt lat="48.075651" lon="6.464046">
        <time>1970-01-01T00:00:00+00:00</time>
        <ele>439.0</ele>
      </trkpt>
      <trkpt lat="48.075716" lon="6.463966">
        <time>1970-01-01T00:00:00+00:00</time>
        <ele>437.0</ele>
      </trkpt>
      <trkpt lat="48.075785" lon="6.463952">
        <time>1970-01-01T00:00:00+00:00</time>
        <ele>436.0</ele>
      </trkpt>
      <trkpt lat="48.075834" lon="6.464007">
        <time>1970-01-01T00:00:00+00:00</time>
        <ele>435.0</ele>
      </trkpt>
      <trkpt lat="48.075864" lon="6.464113">
        <time>1970-01-01T00:00:00+00:00</time>
        <ele>434.0</ele>
      </trkpt>
      <trkpt lat="48.075896" lon="6.464382">
        <time>1970-01-01T00:00:00+00:00</time>
        <ele>433.0</ele>
      </trkpt>
      <trkpt lat="48.075944" lon="6.464523">
        <time>1970-01-01T00:00:00+00:00</time>
        <ele>432.0</ele>
      </trkpt>
      <trkpt lat="48.07638" lon="6.46436">
        <time>1970-01-01T00:00:00+00:00</time>
        <ele>429.0</ele>
      </trkpt>
      <trkpt lat="48.076513" lon="6.464335">
        <time>1970-01-01T00:00:00+00:00</time>
        <ele>429.0</ele>
      </trkpt>
      <trkpt lat="48.076618" lon="6.46435">
        <time>1970-01-01T00:00:00+00:00</time>
        <ele>429.0</ele>
      </trkpt>
      <trkpt lat="48.076667" lon="6.46437">
        <time>1970-01-01T00:00:00+00:00</time>
        <ele>429.0</ele>
      </trkpt>
      <trkpt lat="48.077226" lon="6.465073">
        <time>1970-01-01T00:00:00+00:00</time>
        <ele>434.0</ele>
      </trkpt>
      <trkpt lat="48.077404" lon="6.465177">
        <time>1970-01-01T00:00:00+00:00</time>
        <ele>437.0</ele>
      </trkpt>
      <trkpt lat="48.077706" lon="6.465226">
        <time>1970-01-01T00:00:00+00:00</time>
        <ele>441.0</ele>
      </trkpt>
      <trkpt lat="48.078949" lon="6.465245">
        <time>1970-01-01T00:00:00+00:00</time>
        <ele>445.0</ele>
      </trkpt>
      <trkpt lat="48.078934" lon="6.465326">
        <time>1970-01-01T00:00:00+00:00</time>
        <ele>445.0</ele>
      </trkpt>
      <trkpt lat="48.079061" lon="6.466455">
        <time>1970-01-01T00:00:00+00:00</time>
        <ele>444.0</ele>
      </trkpt>
      <trkpt lat="48.079145" lon="6.467129">
        <time>1970-01-01T00:00:00+00:00</time>
        <ele>443.0</ele>
      </trkpt>
      <trkpt lat="48.079231" lon="6.467601">
        <time>1970-01-01T00:00:00+00:00</time>
        <ele>442.0</ele>
      </trkpt>
      <trkpt lat="48.079312" lon="6.467879">
        <time>1970-01-01T00:00:00+00:00</time>
        <ele>442.0</ele>
      </trkpt>
      <trkpt lat="48.079755" lon="6.468352">
        <time>1970-01-01T00:00:00+00:00</time>
        <ele>440.0</ele>
      </trkpt>
      <trkpt lat="48.080272" lon="6.469048">
        <time>1970-01-01T00:00:00+00:00</time>
        <ele>436.0</ele>
      </trkpt>
      <trkpt lat="48.080514" lon="6.469254">
        <time>1970-01-01T00:00:00+00:00</time>
        <ele>435.0</ele>
      </trkpt>
      <trkpt lat="48.080996" lon="6.469778">
        <time>1970-01-01T00:00:00+00:00</time>
        <ele>431.0</ele>
      </trkpt>
      <trkpt lat="48.08121" lon="6.46994">
        <time>1970-01-01T00:00:00+00:00</time>
        <ele>429.0</ele>
      </trkpt>
      <trkpt lat="48.081448" lon="6.470003">
        <time>1970-01-01T00:00:00+00:00</time>
        <ele>429.0</ele>
      </trkpt>
      <trkpt lat="48.08167" lon="6.470089">
        <time>1970-01-01T00:00:00+00:00</time>
        <ele>428.0</ele>
      </trkpt>
      <trkpt lat="48.081842" lon="6.470303">
        <time>1970-01-01T00:00:00+00:00</time>
        <ele>428.0</ele>
      </trkpt>
      <trkpt lat="48.082457" lon="6.47126">
        <time>1970-01-01T00:00:00+00:00</time>
        <ele>425.0</ele>
      </trkpt>
      <trkpt lat="48.082681" lon="6.471559">
        <time>1970-01-01T00:00:00+00:00</time>
        <ele>422.0</ele>
      </trkpt>
      <trkpt lat="48.083103" lon="6.471838">
        <time>1970-01-01T00:00:00+00:00</time>
        <ele>420.0</ele>
      </trkpt>
      <trkpt lat="48.083519" lon="6.472342">
        <time>1970-01-01T00:00:00+00:00</time>
        <ele>417.0</ele>
      </trkpt>
      <trkpt lat="48.08374" lon="6.472461">
        <time>1970-01-01T00:00:00+00:00</time>
        <ele>414.0</ele>
      </trkpt>
      <trkpt lat="48.083917" lon="6.472507">
        <time>1970-01-01T00:00:00+00:00</time>
        <ele>413.0</ele>
      </trkpt>
      <trkpt lat="48.084005" lon="6.472391">
        <time>1970-01-01T00:00:00+00:00</time>
        <ele>414.0</ele>
      </trkpt>
      <trkpt lat="48.084443" lon="6.472721">
        <time>1970-01-01T00:00:00+00:00</time>
        <ele>416.0</ele>
      </trkpt>
      <trkpt lat="48.085812" lon="6.474186">
        <time>1970-01-01T00:00:00+00:00</time>
        <ele>424.0</ele>
      </trkpt>
      <trkpt lat="48.085923" lon="6.474261">
        <time>1970-01-01T00:00:00+00:00</time>
        <ele>423.0</ele>
      </trkpt>
      <trkpt lat="48.086163" lon="6.474355">
        <time>1970-01-01T00:00:00+00:00</time>
        <ele>422.0</ele>
      </trkpt>
      <trkpt lat="48.086544" lon="6.474323">
        <time>1970-01-01T00:00:00+00:00</time>
        <ele>420.0</ele>
      </trkpt>
      <trkpt lat="48.08667" lon="6.475538">
        <time>1970-01-01T00:00:00+00:00</time>
        <ele>417.0</ele>
      </trkpt>
      <trkpt lat="48.086657" lon="6.475615">
        <time>1970-01-01T00:00:00+00:00</time>
        <ele>417.0</ele>
      </trkpt>
      <trkpt lat="48.086562" lon="6.475543">
        <time>1970-01-01T00:00:00+00:00</time>
        <ele>416.0</ele>
      </trkpt>
      <trkpt lat="48.086417" lon="6.475498">
        <time>1970-01-01T00:00:00+00:00</time>
        <ele>417.0</ele>
      </trkpt>
      <trkpt lat="48.086301" lon="6.475519">
        <time>1970-01-01T00:00:00+00:00</time>
        <ele>417.0</ele>
      </trkpt>
      <trkpt lat="48.086094" lon="6.475648">
        <time>1970-01-01T00:00:00+00:00</time>
        <ele>417.0</ele>
      </trkpt>
      <trkpt lat="48.085933" lon="6.475813">
        <time>1970-01-01T00:00:00+00:00</time>
        <ele>416.0</ele>
      </trkpt>
    </trkseg>
  </trk>
</gpx>
